Location: Oshawa
(43.9000°N, 78.8670°W)
Time: 18:06:29
(UTC-04:00)

Cosmos 1821 Rocket - Pass Details

Date: 25 April 2018
Orbit: 944 x 1006 km, 82.9° (Epoch: 22 May)

Event Time Altitude Azimuth Distance (km) Brightness Sun altitude
Exits shadow 00:11:01 - 248° (WSW) 2,923 6.4 -31.2°
Reaches altitude 10° 00:11:42 10° 253° (WSW) 2,759 6.3 -31.2°
Maximum altitude 00:15:53 18° 295° (WNW) 2,214 6.2 -31.4°
Drops below altitude 10° 00:20:03 10° 337° (NNW) 2,743 7.2 -31.6°
Sets 00:23:30 0° 355° (N) 3,684 8.1 -31.8°
